Regional Weather Roundup
Issued by NWS

Home | Current Version | Previous Version | Graphics & Text | Print | Product List | Glossary On
Versions: 1 2 3 4 5 6 7 8 9 10 11 12 13 14 15 16 17 18 19 20 21 22 23 24 25 26 27 28 29 30 31 32 33 34 35 36 37 38 39 40 41 42 43 44 45 46 47 48 49 50
000
ASUS43 KOAX 261502
RWRNE

WEATHER ROUNDUP FOR NEBRASKA
NATIONAL WEATHER SERVICE OMAHA NE
1000 AM CDT MON JUN 26 2017

NOTES: SATELLITE DATA IS BEING USED TO AUGMENT CLOUD COVER ABOVE
       12000 FEET.
       "FAIR" INDICATES FEW OR NO CLOUDS BELOW 12,000 FEET WITH NO
       SIGNIFICANT WEATHER AND/OR OBSTRUCTIONS TO VISIBILITY.

  * THESE STATIONS DO NOT REPORT WEATHER SUCH AS RAIN...SNOW OR FOG.

NEZ001>004-019>022-054>056-261600-
NEBRASKA PANHANDLE

CITY           SKY/WX    TMP DP  RH WIND       PRES   REMARKS
SCOTTSBLUFF    SUNNY     65  46  50 CALM      30.25S
ALLIANCE       SUNNY     65  53  65 NE9       30.24F
CHADRON        SUNNY     62  41  46 VRB3      30.26S
GORDON         FAIR      63  42  45 SE12      30.27S
KIMBALL        SUNNY     69  55  60 NW8       30.27F
SIDNEY         SUNNY     69  56  62 NW8       30.25F
$$

NEZ057>060-069>072-079>082-261600-
SOUTHWEST NEBRASKA

CITY           SKY/WX    TMP DP  RH WIND       PRES   REMARKS
NORTH PLATTE   CLOUDY    64  61  90 CALM      30.21S
IMPERIAL       SUNNY     66  56  70 W5        30.22F
LEXINGTON      CLOUDY    65  58  77 W3        30.21S
MCCOOK         MOSUNNY   69  59  70 CALM      30.21S
OGALLALA       MOSUNNY   69  57  65 CALM      30.22S
$$

NEZ005>010-023>029-035>040-094-261600-
NORTH CENTRAL NEBRASKA

CITY           SKY/WX    TMP DP  RH WIND       PRES   REMARKS
VALENTINE      SUNNY     67  42  40 NE13      30.25S
AINSWORTH      SUNNY     64  47  54 E10       30.24S
BROKEN BOW     PTSUNNY   68  58  70 NW8       30.20F
O`NEILL        SUNNY     66  48  52 NE14      30.23R
ORD            SUNNY     69  55  60 N7        30.18F
THEDFORD       SUNNY     68  45  44 NE16      30.23F
$$

NEZ041-046>049-061>064-073>077-083>087-261600-
SOUTH CENTRAL NEBRASKA

CITY           SKY/WX    TMP DP  RH WIND       PRES   REMARKS
GRAND ISLAND   PTSUNNY   70  60  70 W12       30.19F
AURORA         PTSUNNY   69  59  71 W13       30.19F
HASTINGS       PTSUNNY   66  56  70 W10       30.22S
HEBRON         MOSUNNY   70  58  64 W9        30.20F
HOLDREGE       CLOUDY    65  57  75 SW5       30.21F
KEARNEY *      PTSUNNY   66  55  68 W13       30.21S
YORK           CLOUDY    66  57  72 SW5       30.20F
$$

NEZ011>018-030>034-042>045-261600-
NORTHEAST NEBRASKA

CITY           SKY/WX    TMP DP  RH WIND       PRES   REMARKS
NORFOLK        SUNNY     68  53  58 NW3       30.18S
ALBION         SUNNY     70  54  57 NE5       30.19S
BLAIR          PTSUNNY   62  57  83 S9        30.19F
FREMONT        MOSUNNY   65  57  76 S6        30.19F
TEKAMAH        SUNNY     65  54  67 SE7       30.19S
WAYNE          SUNNY     64  54  70 NE8       30.20S
$$

NEZ050>053-065>068-078-088>093-261600-
SOUTHEAST NEBRASKA

CITY           SKY/WX    TMP DP  RH WIND       PRES   REMARKS
LINCOLN        PTSUNNY   64  58  80 S9        30.20F
OMAHA EPPLEY   CLOUDY    61  55  81 S8        30.19F
BEATRICE       CLOUDY    66  57  73 E8        30.22R
FALLS CITY     CLOUDY    63  57  81 E9        30.22S
PLATTSMOUTH    CLOUDY    59  56  88 S10       30.19F
$$

NEZ044-045-051>053-067-261600-
OMAHA AREA

CITY           SKY/WX    TMP DP  RH WIND       PRES   REMARKS
OMAHA EPPLEY   CLOUDY    61  55  81 S8        30.19F
BLAIR          PTSUNNY   62  57  83 S9        30.19F
FREMONT        MOSUNNY   65  57  76 S6        30.19F
MILLARD        CLOUDY    63  58  83 SE5       30.19F
OFFUTT AFB     MOSUNNY   60  55  85 SE6       30.19F
PLATTSMOUTH    CLOUDY    59  56  88 S10       30.19F
WAHOO          CLOUDY    65  53  66 S8        30.19S
$$



USA.gov is the U.S. government's official web portal to all federal, state and local government web resources and services.